When you browse on this site, cookies collect data to enhance your experience and personalize the content and advertising you see.
Visit our Privacy Policy to learn more. By continuing to use the site, you agree to this use of cookies and data.
  • In Hungary
  • List of Countries
  • For 7 days
  • Water Temperature
  • Satellite Maps
  • Weather Map
  • News
  • Weather Widgets
  • user-avatar
    Login

    Hourly Weather Mamykchi

    Today, 12 December, Wednesday

    Time Temperature Precipitation Wind Pressure Humidity
    00:00 +5°C° 0 mm 3 mps 740 mmHg 70%
    01:00 +5°C° 0 mm 3 mps 740 mmHg 72%
    02:00 +4°C° 0 mm 3 mps 740 mmHg 73%
    03:00 +5°C° 0 mm 2 mps 740 mmHg 75%
    04:00 +5°C° 0 mm 2 mps 740 mmHg 77%
    05:00 +5°C° 0 mm 2 mps 740 mmHg 78%
    06:00 +5°C° 0 mm 2 mps 740 mmHg 79%
    07:00 +5°C° 0 mm 2 mps 740 mmHg 80%
    08:00 +6°C° 0 mm 2 mps 740 mmHg 72%
    09:00 +8°C° 0 mm 2 mps 741 mmHg 65%
    10:00 +9°C° 0 mm 2 mps 741 mmHg 58%
    11:00 +10°C° 0 mm 2 mps 740 mmHg 54%
    12:00 +12°C° 0 mm 2 mps 740 mmHg 49%
    13:00 +13°C° 0 mm 1 mps 740 mmHg 45%
    14:00 +13°C° 0 mm 2 mps 740 mmHg 47%
    15:00 +12°C° 0 mm 2 mps 740 mmHg 49%
    16:00 +12°C° 0 mm 2 mps 740 mmHg 50%
    17:00 +10°C° 0 mm 2 mps 740 mmHg 52%
    18:00 +10°C° 0 mm 2 mps 740 mmHg 53%
    19:00 +9°C° 0 mm 3 mps 740 mmHg 55%
    20:00 +9°C° 0 mm 3 mps 740 mmHg 54%
    21:00 +9°C° 0 mm 3 mps 740 mmHg 54%
    22:00 +9°C° 0 mm 3 mps 740 mmHg 54%
    23:00 +8°C° 0 mm 3 mps 740 mmHg 53%

    Tomorrow, 13 December, Thursday

    Time Temperature Precipitation Wind Pressure Humidity
    00:00 +8°C° 0 mm 3 mps 739 mmHg 52%
    01:00 +8°C° 0 mm 3 mps 739 mmHg 51%
    02:00 +7°C° 0 mm 4 mps 739 mmHg 50%
    03:00 +7°C° 0 mm 4 mps 739 mmHg 50%
    04:00 +7°C° 0 mm 4 mps 739 mmHg 49%
    05:00 +7°C° 0 mm 4 mps 739 mmHg 49%
    06:00 +6°C° 0 mm 4 mps 739 mmHg 48%
    07:00 +6°C° 0 mm 4 mps 739 mmHg 48%
    08:00 +8°C° 0 mm 4 mps 739 mmHg 42%
    09:00 +10°C° 0 mm 5 mps 739 mmHg 37%
    10:00 +13°C° 0 mm 5 mps 739 mmHg 32%
    11:00 +14°C° 0 mm 5 mps 739 mmHg 28%
    12:00 +15°C° 0 mm 5 mps 738 mmHg 25%
    13:00 +16°C° 0 mm 5 mps 738 mmHg 21%
    14:00 +15°C° 0 mm 4 mps 738 mmHg 23%
    15:00 +14°C° 0 mm 4 mps 738 mmHg 25%
    16:00 +13°C° 0 mm 3 mps 738 mmHg 28%
    17:00 +13°C° 0 mm 3 mps 738 mmHg 28%
    18:00 +12°C° 0 mm 4 mps 738 mmHg 29%
    19:00 +12°C° 0 mm 4 mps 738 mmHg 30%
    20:00 +10°C° 0 mm 5 mps 738 mmHg 31%
    21:00 +10°C° 0 mm 5 mps 738 mmHg 32%
    22:00 +10°C° 0 mm 5 mps 738 mmHg 33%
    23:00 +10°C° 0 mm 5 mps 738 mmHg 32%

    Day after tomorrow, 14 December, Friday

    Time Temperature Precipitation Wind Pressure Humidity
    00:00 +9°C° 0 mm 5 mps 738 mmHg 32%
    01:00 +9°C° 0 mm 5 mps 737 mmHg 32%
    02:00 +10°C° 0 mm 4 mps 737 mmHg 31%
    03:00 +10°C° 0 mm 4 mps 737 mmHg 30%
    04:00 +8°C° 0 mm 4 mps 737 mmHg 30%
    05:00 +8°C° 0 mm 4 mps 738 mmHg 30%
    06:00 +8°C° 0 mm 4 mps 738 mmHg 29%
    07:00 +8°C° 0 mm 4 mps 738 mmHg 29%
    08:00 +11°C° 0 mm 4 mps 738 mmHg 26%
    09:00 +12°C° 0 mm 4 mps 738 mmHg 23%
    10:00 +14°C° 0 mm 5 mps 738 mmHg 20%
    11:00 +14°C° 0 mm 5 mps 738 mmHg 18%
    12:00 +15°C° 0 mm 6 mps 738 mmHg 17%
    13:00 +16°C° 0 mm 6 mps 738 mmHg 15%
    14:00 +15°C° 0 mm 5 mps 739 mmHg 18%
    15:00 +14°C° 0 mm 4 mps 739 mmHg 21%
    16:00 +13°C° 0 mm 3 mps 739 mmHg 24%
    17:00 +13°C° 0 mm 2 mps 740 mmHg 27%
    18:00 +12°C° 0 mm 2 mps 740 mmHg 31%
    19:00 +10°C° 0 mm 2 mps 741 mmHg 35%
    20:00 +10°C° 0 mm 2 mps 741 mmHg 38%
    21:00 +9°C° 0 mm 2 mps 741 mmHg 40%
    22:00 +9°C° 0 mm 2 mps 741 mmHg 42%
    23:00 +8°C° 0 mm 2 mps 742 mmHg 47%

    15 December, Saturday

    Time Temperature Precipitation Wind Pressure Humidity
    00:00 +8°C° 0 mm 2 mps 742 mmHg 52%
    01:00 +7°C° 0 mm 2 mps 742 mmHg 57%
    02:00 +7°C° 0 mm 2 mps 742 mmHg 58%
    03:00 +7°C° 0 mm 2 mps 742 mmHg 58%
    04:00 +7°C° 0 mm 3 mps 742 mmHg 59%
    05:00 +7°C° 0 mm 3 mps 742 mmHg 58%
    06:00 +7°C° 0 mm 3 mps 742 mmHg 56%
    07:00 +7°C° 0 mm 3 mps 742 mmHg 55%
    08:00 +8°C° 0 mm 3 mps 742 mmHg 49%
    09:00 +9°C° 0 mm 3 mps 742 mmHg 43%
    10:00 +11°C° 0 mm 3 mps 742 mmHg 37%
    11:00 +12°C° 0 mm 3 mps 741 mmHg 33%
    12:00 +13°C° 0 mm 3 mps 741 mmHg 28%
    13:00 +14°C° 0 mm 3 mps 740 mmHg 24%
    14:00 +13°C° 0 mm 3 mps 740 mmHg 28%
    15:00 +13°C° 0 mm 2 mps 740 mmHg 32%
    16:00 +12°C° 0 mm 2 mps 740 mmHg 36%
    17:00 +10°C° 0 mm 2 mps 741 mmHg 41%
    18:00 +10°C° 0 mm 2 mps 741 mmHg 46%
    19:00 +9°C° 0 mm 2 mps 741 mmHg 51%
    20:00 +8°C° 0 mm 2 mps 742 mmHg 55%
    21:00 +8°C° 0 mm 2 mps 742 mmHg 58%
    22:00 +7°C° 0 mm 2 mps 742 mmHg 62%
    23:00 +7°C° 0 mm 2 mps 742 mmHg 66%

    16 December, Sunday

    Time Temperature Precipitation Wind Pressure Humidity
    00:00 +6°C° 0 mm 2 mps 743 mmHg 70%
    01:00 +6°C° 0 mm 2 mps 743 mmHg 74%
    02:00 +6°C° 0 mm 2 mps 743 mmHg 77%
    03:00 +5°C° 0 mm 2 mps 744 mmHg 80%
    04:00 +5°C° 0 mm 2 mps 744 mmHg 83%
    05:00 +4°C° 0 mm 2 mps 745 mmHg 84%
    06:00 +4°C° 0 mm 2 mps 745 mmHg 86%
    07:00 +4°C° 0 mm 2 mps 745 mmHg 87%
    08:00 +5°C° 0 mm 2 mps 746 mmHg 82%
    09:00 +5°C° 0 mm 2 mps 746 mmHg 77%
    10:00 +6°C° 0 mm 2 mps 746 mmHg 72%
    11:00 +7°C° 0 mm 2 mps 746 mmHg 67%
    12:00 +7°C° 0 mm 2 mps 746 mmHg 63%
    13:00 +8°C° 0 mm 3 mps 745 mmHg 58%
    14:00 +8°C° 0 mm 3 mps 745 mmHg 58%
    15:00 +7°C° 0 mm 3 mps 746 mmHg 58%
    16:00 +7°C° 0 mm 3 mps 746 mmHg 57%
    17:00 +7°C° 0 mm 2 mps 746 mmHg 59%
    18:00 +6°C° 0 mm 2 mps 746 mmHg 61%
    19:00 +6°C° 0 mm 2 mps 746 mmHg 63%
    20:00 +5°C° 0 mm 2 mps 746 mmHg 64%
    21:00 +6°C° 0 mm 1 mps 746 mmHg 65%
    22:00 +6°C° 0 mm 1 mps 746 mmHg 66%
    23:00 +5°C° 0 mm 1 mps 746 mmHg 67%

    17 December, Monday

    Time Temperature Precipitation Wind Pressure Humidity
    00:00 +5°C° 0 mm 1 mps 746 mmHg 68%
    01:00 +5°C° 0 mm 1 mps 746 mmHg 68%
    02:00 +3°C° 0 mm 2 mps 746 mmHg 69%
    03:00 +3°C° 0 mm 2 mps 746 mmHg 69%
    04:00 +3°C° 0 mm 2 mps 745 mmHg 69%
    05:00 +3°C° 0 mm 2 mps 746 mmHg 69%
    06:00 +3°C° 0 mm 2 mps 746 mmHg 69%
    07:00 +2°C° 0 mm 2 mps 746 mmHg 69%
    08:00 +4°C° 0 mm 2 mps 746 mmHg 63%
    09:00 +5°C° 0 mm 2 mps 746 mmHg 56%
    10:00 +7°C° 0 mm 2 mps 746 mmHg 50%
    11:00 +8°C° 0 mm 2 mps 745 mmHg 45%
    12:00 +9°C° 0 mm 2 mps 745 mmHg 40%
    13:00 +10°C° 0 mm 2 mps 744 mmHg 35%
    14:00 +9°C° 0 mm 2 mps 744 mmHg 37%
    15:00 +9°C° 0 mm 2 mps 744 mmHg 39%
    16:00 +8°C° 0 mm 3 mps 744 mmHg 41%
    17:00 +8°C° 0 mm 3 mps 744 mmHg 44%
    18:00 +7°C° 0 mm 3 mps 744 mmHg 47%
    19:00 +5°C° 0 mm 3 mps 744 mmHg 51%
    20:00 +5°C° 0 mm 3 mps 744 mmHg 51%
    21:00 +5°C° 0 mm 3 mps 743 mmHg 51%
    22:00 +5°C° 0 mm 3 mps 743 mmHg 51%
    23:00 +5°C° 0 mm 3 mps 743 mmHg 51%
    Show more